Wetbulb
46.35 44.69 41.30 43.49 46.04 46.81 45.83 45.12 43.12 43.24 45.81 46.64 44.82 43.76 42.87 45.54 46.23 44.80 46.44 48.23 48.16 50.14 52.80 54.55 56.67 58.65 58.64 58.62 60.02 60.31 57.43 55.77 54.03 52.50 51.78 53.25 52.10 52.26 52.26 52.19 52.88 53.07 53.06 51.61
44.15 40.04 41.85 45.10 46.61 46.68 46.52 42.68 40.61 42.11 44.07 43.99 40.89 40.22 43.30 43.89 44.21 44.69 45.07 45.86 46.69 47.76 48.77 50.07 51.63 52.70 54.36 56.65 57.97 58.76 59.32 58.47 56.81 55.78 54.45 54.22 54.18 53.19 51.16 51.08 50.66 51.10 50.91 50.96
40.28 39.86 43.13 43.39 44.92 42.38 40.90 42.56 41.33 40.72 41.24 41.92 40.38 37.22 39.55 42.50 43.65 44.33 44.97 45.73 45.72 45.10 45.96 47.53 48.90 48.71 49.63 50.22 52.25 55.18 57.09 57.69 57.90 56.96 56.40 55.57 54.41 51.43 49.76 49.82 49.37 49.83 49.76 49.18
40.02 43.50 43.41 42.94 40.84 42.01 38.44 43.15 42.87 40.13 39.15 33.64 39.29 28.40 36.01 38.94 39.53 41.53 42.49 42.66 43.32 45.04 46.87 47.78 47.82 47.70 48.37 49.11 50.63 51.76 53.21 54.59 55.68 57.08 55.71 54.57 53.11 51.45 51.57 50.64 51.82 50.87 48.86 47.00
36.46 39.98 39.68 38.03 38.83 41.99 39.29 43.16 41.67 40.94 37.78 35.27 34.85 33.65 36.40 39.20 36.13 38.10 40.42 43.27 44.28 45.41 46.33 46.29 47.05 48.54 48.53 48.96 48.84 49.72 50.43 51.15 52.64 53.77 53.84 54.13 53.57 53.77 53.58 53.11 52.49 51.11 47.42 46.06
39.52 43.66 40.87 40.12 42.39 43.12 43.67 40.40 39.59 38.56 35.64 29.38 31.65 30.46 31.54 34.40 36.42 37.59 40.49 42.30 43.86 44.08 44.73 46.05 47.22 48.29 47.99 48.44 48.53 48.69 49.01 49.46 50.57 51.48 51.98 51.86 51.26 51.52 51.17 51.37 51.20 50.78 48.96 45.88
37.88 37.61 40.38 41.17 39.30 42.02 41.15 36.33 29.44 28.47 27.39 26.57 32.71 29.79 31.86 37.52 39.22 39.19 39.63 41.30 41.95 42.13 42.24 42.74 43.41 44.27 45.66 46.59 47.36 47.35 47.79 47.81 49.07 49.38 49.84 50.41 50.41 50.53 50.03 50.14 51.12 50.58 50.02 48.23
32.48 30.09 35.32 39.08 37.80 36.58 37.11 35.55 28.95 24.74 25.11 26.60 31.63 26.73 31.36 39.06 40.14 40.82 41.97 41.49 40.96 40.10 41.40 41.63 42.47 42.82 43.43 44.45 44.89 45.65 45.90 45.82 46.68 47.33 47.86 48.70 49.12 49.11 50.17 51.25 50.65 50.47 50.49 50.72
33.03 31.65 37.35 38.38 39.64 38.60 36.19 32.62 37.14 29.57 27.45 25.58 28.11 30.17 35.48 37.19 38.03 38.79 39.41 40.07 38.28 39.08 39.74 40.66 41.47 42.15 42.15 42.46 42.84 42.97 42.93 43.38 44.11 44.76 45.14 45.71 46.64 47.20 47.53 48.25 49.12 50.39 50.24 50.25
35.11 29.65 34.89 37.51 39.02 39.66 37.34 38.82 31.38 31.27 22.81 21.58 24.19 25.23 29.14 33.13 35.28 37.44 37.89 38.06 38.23 39.10 39.87 40.78 41.35 41.39 40.87 39.97 39.78 40.18 41.15 41.18 41.78 42.21 42.62 43.47 43.89 45.00 45.71 46.20 46.20 46.73 47.84 48.82
36.21 34.24 31.03 36.13 34.56 34.41 34.30 33.20 33.73 33.71 30.68 24.83 22.87 24.92 36.08 36.02 37.72 37.50 38.06 39.57 39.44 39.37 39.60 40.15 40.61 39.49 38.03 36.84 36.58 36.70 37.19 37.88 38.80 39.75 39.87 39.99 40.77 41.98 42.90 43.47 44.30 45.17 45.80 46.27
36.46 34.53 28.51 30.80 34.15 35.16 34.55 35.13 35.02 27.72 25.37 28.78 27.46 25.44 37.05 39.37 40.07 39.88 39.26 40.29 39.77 39.61 39.45 39.24 38.85 37.14 35.51 35.24 35.22 35.46 36.18 36.45 37.47 38.01 38.19 38.52 39.09 39.61 39.70 40.36 41.44 42.56 43.31 44.45
36.57 29.81 23.30 25.04 29.61 32.63 31.67 35.38 36.23 34.84 32.65 27.21 23.57 25.92 36.94 39.33 38.81 39.20 38.75 39.43 38.37 37.89 37.30 37.04 36.98 35.01 34.09 34.07 34.59 34.67 34.73 35.34 36.24 36.76 36.85 37.04 37.13 37.47 37.75 38.29 39.08 40.12 40.70 41.50
38.07 31.39 28.01 23.23 26.28 30.95 28.31 31.20 34.41 33.72 26.97 28.13 28.32 29.33 33.06 36.25 37.19 37.63 38.03 37.09 36.53 36.70 36.73 36.19 35.07 33.82 34.09 34.77 34.07 33.86 34.47 35.17 35.53 35.52 35.09 34.82 35.54 36.43 36.96 37.79 37.94 38.11 38.93 39.28
36.02 23.08 26.72 29.06 30.59 30.71 28.59 29.22 31.95 31.81 31.94 27.24 30.41 32.06 34.32 35.98 36.95 37.83 37.71 37.15 36.67 35.28 35.33 35.88 34.41 33.33 33.24 33.36 33.46 33.83 33.89 34.40 34.79 34.03 33.82 33.93 35.04 35.70 36.09 35.55 36.22 37.14 37.28 38.31
35.69 23.16 27.65 21.62 28.32 27.77 25.29 29.64 31.10 32.15 32.64 32.26 31.99 30.72 35.91 35.67 37.87 36.24 36.86 36.54 35.29 34.94 35.40 36.36 35.51 34.40 34.26 34.47 33.13 33.99 33.55 33.48 33.77 33.11 32.78 33.70 34.05 34.52 33.83 34.49 34.94 35.69 35.91 36.36
29.81 25.28 22.86 19.60 23.82 23.43 20.34 27.00 28.97 30.81 32.09 32.51 28.08 33.21 35.18 33.09 34.84 35.39 35.42 35.65 35.56 34.98 35.26 35.80 36.11 34.52 34.94 34.37 34.26 32.75 33.17 33.58 32.43 32.22 32.78 32.95 33.09 32.40 32.13 32.64 33.13 33.40 34.38 35.01
25.14 27.02 29.07 15.14 17.07 11.51 26.25 28.45 30.03 31.42 32.79 34.81 34.35 34.69 35.82 34.74 35.40 35.76 36.02 35.69 35.17 35.10 35.05 35.57 36.01 34.88 34.85 34.07 33.15 33.58 33.30 32.69 31.69 31.12 31.43 32.05 31.15 30.97 30.43 30.45 30.74 31.62 32.46 32.38
31.22 28.86 19.90 13.31 11.06 22.36 27.04 26.82 25.07 25.82 27.36 34.06 35.21 36.29 35.24 34.81 32.67 32.47 36.61 36.21 35.17 35.32 34.98 35.24 35.11 35.21 34.78 33.04 32.71 32.65 31.73 31.10 29.98 30.41 30.76 30.77 30.15 29.16 29.04 29.46 29.49 30.23 30.37 30.62
28.65 31.41 22.85 12.71 9.26 8.71 24.54 25.27 29.85 28.39 20.27 32.43 35.19 35.99 35.67 31.26 27.27 29.82 34.17 34.80 35.44 35.67 35.90 35.18 34.29 34.32 32.84 32.67 32.25 31.18 29.78 29.46 29.73 29.87 29.95 29.26 29.46 28.72 29.18 29.34 29.50 30.02 29.89 29.99
25.33 25.08 18.96 14.77 12.78 19.71 29.12 27.64 29.20 16.20 24.44 30.30 33.67 34.05 32.80 31.10 31.25 32.59 34.52 34.18 34.82 35.00 35.30 34.95 32.85 32.13 32.32 32.26 30.97 29.05 29.33 29.95 30.68 29.44 29.63 29.84 29.69 29.07 28.83 28.71 29.13 28.84 28.69 28.99
25.25 25.18 24.28 21.16 11.79 14.26 28.81 26.38 23.36 27.81 27.23 29.93 32.44 33.09 32.39 32.07 32.93 32.80 32.93 32.86 33.14 33.06 33.05 33.07 31.11 30.57 31.38 30.80 29.34 29.07 28.89 31.12 28.99 28.80 29.00 29.06 28.49 28.35 29.00 27.92 28.07 28.18 27.85 27.49
21.20 26.16 23.73 26.42 24.57 27.50 30.95 26.81 29.69 29.92 29.31 30.47 30.71 31.40 32.41 31.35 31.33 32.55 32.53 32.14 31.81 31.39 29.83 29.86 29.93 29.10 29.19 29.52 28.99 28.45 30.40 28.86 28.38 26.91 26.47 26.77 27.70 28.29 28.32 27.30 27.05 26.83 27.16 26.58
20.45 19.82 21.53 24.95 26.69 30.08 28.83 29.61 29.50 30.88 28.89 30.57 30.96 31.82 31.39 30.62 31.56 30.72 30.17 29.76 29.33 29.17 29.21 29.13 28.41 27.96 28.10 28.41 28.79 28.32 29.66 28.40 24.40 24.97 26.76 27.59 26.82 26.94 27.09 27.40 27.44 26.73 26.42 26.07
22.36 24.97 20.98 21.69 26.02 26.49 26.58 30.60 32.83 31.31 30.67 30.26 30.42 30.10 29.88 29.47 29.34 29.31 28.92 28.80 28.57 28.66 28.71 28.42 27.86 28.34 28.03 27.95 27.68 27.74 28.02 25.14 25.77 26.59 26.70 26.44 26.36 25.70 25.85 26.54 26.57 26.63 27.58 27.96
23.13 23.60 24.50 23.44 28.13 28.81 30.24 30.75 32.43 30.33 30.45 31.10 28.19 26.79 27.83 29.54 28.83 28.53 27.87 28.07 28.04 27.62 27.80 27.24 27.06 26.49 27.67 27.48 26.97 26.61 21.24 21.77 23.18 25.26 25.30 25.22 24.96 24.89 24.86 24.66 24.78 29.29 30.57 31.34
MSLP
1015.09 1015.35 1015.71 1015.80 1015.47 1014.94 1014.64 1015.23 1015.94 1016.42 1016.27 1016.16 1016.29 1016.27 1016.32 1016.00 1015.92 1016.05 1016.02 1015.98 1016.14 1016.13 1016.16 1016.35 1016.83 1017.21 1017.71 1018.10 1018.55 1018.95 1019.33 1019.84 1020.30 1020.79 1021.08 1021.06 1021.08 1021.01 1021.05 1021.02 1020.85 1020.67 1020.77 1020.90
1015.41 1015.87 1016.42 1016.28 1015.80 1014.95 1015.09 1015.49 1016.42 1016.84 1016.85 1016.78 1017.66 1017.59 1017.28 1016.95 1017.00 1016.93 1016.88 1017.00 1017.09 1017.22 1017.35 1017.62 1017.79 1017.78 1017.94 1018.23 1018.44 1018.90 1019.11 1019.43 1019.68 1019.94 1020.18 1020.45 1020.47 1020.52 1020.59 1020.74 1020.77 1020.70 1020.69 1020.72
1015.85 1017.00 1016.89 1016.51 1015.72 1015.31 1015.86 1015.60 1016.35 1016.76 1017.62 1017.99 1017.82 1018.20 1018.10 1017.83 1017.82 1017.89 1017.85 1018.09 1018.34 1018.67 1018.69 1018.69 1018.79 1018.87 1018.55 1018.82 1018.98 1018.97 1019.11 1019.27 1019.45 1019.58 1019.72 1019.91 1020.07 1020.54 1020.77 1020.94 1020.86 1020.63 1020.48 1020.59
1017.22 1017.37 1016.76 1016.47 1016.23 1016.16 1016.25 1016.24 1016.52 1016.55 1017.26 1018.77 1018.63 1018.82 1018.64 1018.40 1018.63 1018.70 1018.90 1019.10 1019.40 1019.45 1019.52 1019.51 1019.45 1019.37 1019.37 1019.43 1019.39 1019.45 1019.49 1019.52 1019.46 1019.52 1019.61 1019.78 1019.92 1020.15 1020.14 1020.08 1020.00 1019.95 1020.06 1020.31
1018.51 1017.92 1017.27 1016.56 1016.91 1016.38 1016.73 1016.93 1017.02 1017.01 1017.55 1018.32 1018.68 1018.72 1018.50 1018.42 1019.17 1019.38 1019.62 1019.75 1019.95 1019.96 1019.88 1019.83 1019.69 1019.74 1019.73 1019.76 1020.02 1020.02 1020.06 1020.00 1019.93 1019.81 1019.83 1019.82 1019.74 1019.77 1019.89 1019.81 1019.86 1019.90 1020.02 1020.21
1018.14 1018.12 1018.03 1017.68 1016.96 1016.41 1016.69 1017.12 1017.06 1017.01 1017.42 1018.26 1018.58 1018.85 1018.88 1018.60 1019.30 1019.65 1019.98 1020.18 1020.29 1020.23 1020.16 1019.94 1019.94 1020.00 1020.30 1020.20 1020.31 1020.33 1020.39 1020.44 1020.21 1020.15 1020.18 1020.15 1020.13 1020.11 1020.00 1019.72 1019.70 1019.71 1019.69 1020.02
1017.67 1018.22 1017.94 1017.86 1017.37 1016.52 1016.37 1016.71 1017.23 1017.72 1018.00 1018.60 1018.90 1019.18 1018.76 1018.61 1019.07 1019.38 1019.84 1020.21 1020.27 1020.20 1020.32 1020.40 1020.37 1020.37 1020.72 1020.53 1020.51 1020.48 1020.60 1020.59 1020.33 1020.22 1020.35 1020.26 1020.04 1020.17 1020.15 1019.83 1019.52 1019.45 1019.30 1019.25
1018.10 1019.22 1019.04 1018.49 1017.91 1017.27 1016.79 1016.73 1017.03 1017.73 1018.59 1018.83 1019.24 1019.15 1018.59 1018.75 1019.18 1019.43 1019.76 1020.07 1020.23 1020.21 1020.24 1020.57 1020.71 1020.74 1020.78 1020.88 1020.77 1020.66 1020.81 1020.80 1020.68 1020.71 1020.77 1020.53 1020.15 1020.11 1019.87 1019.60 1019.43 1019.39 1019.13 1018.89
1018.43 1019.24 1019.36 1019.03 1018.40 1018.28 1017.63 1017.48 1017.51 1017.79 1018.80 1018.80 1018.86 1019.16 1019.26 1019.00 1019.35 1019.55 1019.63 1019.87 1020.00 1020.14 1020.34 1020.62 1020.97 1020.98 1021.01 1021.14 1020.93 1021.00 1020.98 1020.78 1020.76 1020.62 1020.58 1020.23 1019.90 1019.88 1019.67 1019.41 1019.08 1018.73 1018.42 1018.18
1017.77 1019.30 1019.88 1019.33 1019.13 1018.92 1018.43 1018.36 1018.12 1018.05 1018.92 1019.03 1018.73 1018.41 1017.71 1018.26 1018.49 1019.00 1019.48 1019.80 1019.92 1020.00 1020.22 1020.64 1020.99 1021.17 1021.18 1021.11 1021.13 1021.06 1020.89 1020.95 1020.79 1020.55 1020.39 1020.10 1019.96 1019.95 1019.60 1019.20 1018.85 1018.43 1017.97 1017.59
1017.55 1018.26 1020.01 1019.59 1019.31 1018.98 1018.93 1018.77 1018.62 1018.53 1018.83 1018.57 1018.38 1016.81 1015.02 1016.07 1017.05 1018.30 1018.97 1019.38 1019.66 1019.91 1020.17 1020.66 1020.99 1021.19 1021.11 1021.27 1021.17 1021.16 1021.16 1020.91 1020.69 1020.40 1020.21 1020.11 1019.89 1019.61 1019.33 1018.96 1018.59 1018.19 1017.72 1017.27
1017.67 1018.41 1019.64 1019.91 1019.63 1019.41 1019.16 1018.65 1018.26 1018.38 1019.09 1018.69 1017.84 1016.21 1014.72 1015.15 1016.49 1017.61 1018.43 1018.96 1019.34 1019.60 1020.17 1020.58 1020.83 1020.93 1021.07 1021.10 1021.11 1021.03 1020.87 1020.69 1020.39 1020.19 1019.99 1019.77 1019.63 1019.36 1019.14 1018.72 1018.21 1017.76 1017.31 1016.90
1017.88 1018.83 1019.92 1020.36 1020.49 1019.84 1019.32 1018.37 1018.02 1018.16 1018.28 1018.56 1017.92 1016.28 1015.22 1015.43 1016.54 1017.54 1018.37 1018.60 1019.03 1019.43 1020.01 1020.54 1020.71 1020.88 1020.96 1021.06 1021.01 1020.84 1020.62 1020.33 1020.01 1019.81 1019.75 1019.66 1019.54 1019.21 1018.76 1018.20 1017.67 1017.29 1017.00 1016.69
1018.47 1019.13 1019.61 1020.02 1019.61 1019.05 1019.11 1018.37 1018.31 1018.31 1018.80 1018.09 1016.93 1016.21 1015.81 1016.00 1016.78 1017.68 1018.06 1018.46 1018.79 1019.25 1019.81 1020.26 1020.54 1020.68 1020.79 1020.80 1020.73 1020.64 1020.47 1020.17 1020.00 1019.82 1019.71 1019.74 1019.34 1018.84 1018.23 1017.81 1017.44 1017.16 1016.75 1016.19
1019.45 1020.21 1020.60 1020.97 1020.64 1020.10 1019.48 1018.97 1018.66 1018.36 1018.11 1017.64 1016.46 1016.03 1015.71 1016.06 1016.58 1016.87 1017.59 1018.15 1018.49 1018.94 1019.41 1019.82 1020.28 1020.54 1020.69 1020.78 1020.62 1020.56 1020.28 1020.12 1019.88 1019.93 1019.75 1019.47 1018.93 1018.43 1017.94 1017.56 1017.04 1016.47 1016.18 1015.84
1020.32 1021.42 1021.91 1022.50 1022.08 1021.54 1020.77 1019.58 1018.86 1018.43 1017.88 1016.93 1016.36 1015.98 1015.64 1015.96 1016.36 1016.82 1017.36 1017.67 1018.11 1018.64 1019.21 1019.62 1019.96 1020.18 1020.32 1020.35 1020.37 1020.11 1019.77 1019.58 1019.42 1019.62 1019.44 1018.87 1018.49 1018.26 1017.85 1017.37 1016.82 1016.01 1015.49 1015.02
1021.35 1022.20 1023.27 1023.85 1023.28 1022.16 1020.73 1018.15 1017.91 1017.49 1016.73 1016.54 1016.15 1015.23 1015.84 1016.20 1016.28 1016.53 1017.17 1017.65 1018.10 1018.47 1018.90 1019.26 1019.59 1019.77 1019.82 1019.93 1019.74 1019.76 1019.44 1019.25 1019.04 1019.19 1019.00 1018.57 1018.08 1017.48 1016.88 1016.65 1016.41 1015.65 1015.02 1014.56
1021.78 1022.82 1023.95 1024.92 1024.55 1022.63 1018.31 1017.12 1016.58 1016.37 1015.96 1015.78 1015.07 1015.14 1015.57 1015.98 1016.40 1016.78 1017.14 1017.55 1017.85 1018.25 1018.54 1018.92 1019.05 1019.27 1019.45 1019.19 1019.36 1019.50 1019.30 1019.11 1018.81 1018.68 1018.44 1018.05 1017.75 1017.27 1016.60 1016.07 1015.57 1014.90 1014.53 1014.03
1022.14 1022.72 1024.64 1025.57 1025.00 1021.28 1017.67 1016.76 1016.72 1016.39 1014.72 1014.51 1014.19 1015.07 1015.59 1016.10 1016.68 1016.99 1016.90 1017.08 1017.48 1017.88 1018.21 1018.54 1018.77 1018.99 1019.13 1019.15 1019.14 1019.40 1019.21 1018.72 1018.48 1018.26 1018.16 1017.68 1017.44 1016.77 1016.33 1015.92 1014.96 1014.22 1013.97 1013.49
1022.90 1022.91 1023.86 1025.44 1024.78 1021.45 1017.42 1016.54 1016.23 1016.12 1014.75 1012.84 1013.25 1013.90 1015.00 1016.23 1017.07 1016.18 1015.90 1016.67 1017.26 1017.47 1017.97 1018.38 1018.68 1018.87 1018.91 1018.79 1018.87 1018.94 1018.80 1018.44 1018.02 1017.81 1017.43 1017.03 1016.57 1016.47 1016.03 1015.42 1014.60 1013.76 1013.26 1012.76
1023.68 1023.64 1023.52 1023.90 1023.37 1020.06 1016.76 1016.55 1016.60 1016.37 1014.01 1012.51 1012.78 1013.54 1014.68 1015.55 1015.73 1015.75 1016.19 1016.67 1016.91 1017.35 1017.81 1018.14 1018.63 1019.07 1018.93 1018.87 1018.81 1018.75 1018.31 1017.75 1017.43 1017.16 1016.74 1016.23 1015.86 1015.69 1015.40 1014.66 1013.96 1013.33 1012.79 1012.20
1021.35 1022.29 1022.48 1022.76 1022.44 1019.68 1015.49 1016.77 1016.04 1013.68 1013.19 1012.85 1013.14 1013.63 1014.68 1015.18 1015.67 1015.99 1016.28 1016.55 1016.94 1017.44 1017.82 1018.18 1018.75 1019.02 1018.85 1018.87 1018.64 1018.31 1017.79 1016.93 1016.95 1016.58 1016.14 1015.67 1015.21 1014.99 1014.56 1014.09 1013.28 1012.81 1012.27 1011.57
1020.71 1018.75 1019.17 1018.65 1016.96 1015.48 1014.44 1013.64 1013.52 1013.20 1013.04 1013.20 1013.09 1013.50 1013.96 1014.84 1015.35 1015.73 1016.11 1016.30 1016.76 1017.40 1018.02 1018.35 1018.78 1018.89 1018.61 1018.50 1018.47 1017.92 1016.61 1016.70 1016.49 1016.18 1015.64 1015.09 1014.49 1013.95 1013.61 1013.26 1012.52 1012.18 1011.53 1010.75
1019.30 1018.15 1017.68 1017.34 1015.30 1014.30 1013.93 1013.50 1013.39 1013.30 1013.17 1013.16 1013.35 1013.61 1014.04 1014.79 1015.35 1015.91 1016.38 1016.78 1017.24 1017.65 1018.14 1018.37 1018.67 1018.58 1018.30 1018.07 1017.92 1017.42 1016.61 1016.38 1016.29 1015.78 1015.07 1014.37 1013.84 1013.10 1012.65 1012.27 1011.73 1011.24 1010.59 1009.78
1016.76 1016.96 1016.74 1015.59 1014.16 1014.08 1013.37 1012.84 1012.66 1013.23 1013.38 1013.55 1013.75 1013.92 1014.45 1015.29 1015.87 1016.19 1016.58 1016.99 1017.17 1017.48 1017.92 1018.22 1018.45 1018.30 1017.90 1017.66 1017.46 1016.97 1016.57 1016.29 1015.93 1015.45 1014.68 1013.94 1013.45 1012.73 1011.94 1011.34 1010.82 1010.19 1009.44 1009.11
1014.57 1014.28 1014.20 1012.10 1011.75 1011.47 1011.56 1011.03 1011.58 1012.78 1012.95 1013.01 1013.81 1014.42 1014.69 1015.26 1015.77 1016.25 1016.67 1016.81 1017.08 1017.36 1017.58 1017.76 1018.04 1018.01 1017.62 1017.37 1017.03 1016.55 1016.26 1016.16 1015.94 1015.27 1014.48 1013.77 1013.13 1012.36 1011.74 1010.87 1009.50 1009.48 1008.60 1008.10
Wind_Speed
2 3 3 6 7 1 15 9 10 8 5 2 9 8 9 8 2 3 5 4 2 4 3 2 4 8 6 3 4 5 6 5 5 3 3 2 3 3 3 4 6 6 5 5
3 4 5 6 3 5 5 16 7 9 9 7 7 6 7 7 7 6 7 9 9 9 10 10 9 7 3 2 5 5 4 5 6 5 3 3 3 2 3 4 5 5 5 6
7 4 5 1 5 12 5 5 6 7 7 10 3 5 6 7 7 7 8 8 8 8 8 8 8 8 8 8 7 3 4 4 2 5 3 2 1 1 1 3 4 6 7 5
8 8 2 7 7 4 4 7 4 16 8 3 3 2 5 7 8 8 8 8 7 7 7 6 5 6 7 6 7 7 5 4 4 4 3 5 4 5 4 5 6 6 7 5
2 7 10 14 4 4 4 3 5 7 10 10 6 3 5 6 6 7 7 7 8 7 6 6 6 5 4 5 5 5 7 6 6 4 4 5 10 6 4 4 5 3 4 5
8 3 4 4 2 7 11 10 4 3 3 2 3 2 5 5 7 6 6 7 7 6 6 5 4 5 5 5 5 4 5 5 6 6 6 6 7 7 6 5 5 4 4 4
7 6 3 3 3 3 4 4 2 3 2 2 2 1 1 8 9 8 8 7 6 6 5 5 7 7 7 7 6 5 7 6 7 7 6 6 6 7 7 6 8 9 4 4
4 2 7 9 4 3 3 1 2 5 5 4 1 4 5 7 8 7 5 8 6 6 5 7 7 6 7 7 7 7 7 6 7 8 7 7 7 4 5 8 7 6 7 6
5 1 2 3 4 5 4 3 3 5 2 4 5 3 2 4 7 7 7 7 4 5 6 7 6 6 6 6 7 7 6 6 6 5 5 5 5 6 6 7 7 7 7 6
5 6 2 1 2 3 2 1 2 3 4 3 3 4 6 15 14 9 8 8 5 5 7 6 5 5 5 6 5 6 5 4 3 4 5 5 7 7 7 6 8 7 8 8
4 4 2 1 4 3 1 0 3 3 1 4 4 7 8 20 18 13 10 7 5 6 7 5 5 4 5 3 4 5 5 5 5 5 5 6 6 7 7 6 7 8 8 9
1 5 4 1 1 0 2 3 5 4 4 3 0 7 1 13 15 11 9 8 5 7 6 6 6 5 3 2 3 4 5 5 5 5 5 6 6 7 7 7 8 7 10 9
3 1 4 2 2 2 5 5 4 3 2 6 5 6 6 9 10 8 8 8 8 7 7 4 5 3 2 2 3 5 5 6 5 5 6 7 7 7 8 8 8 8 9 10
4 2 2 5 2 4 6 6 6 6 3 4 6 1 2 4 8 9 9 7 8 6 6 4 4 2 0 2 4 6 5 6 6 6 6 7 8 8 8 10 10 9 10 11
3 3 4 5 6 5 2 5 9 14 6 8 5 13 6 9 10 10 7 7 7 4 5 5 5 4 3 4 5 5 6 6 6 6 7 8 8 8 8 8 9 9 10 12
1 1 3 3 5 4 3 8 8 10 9 10 10 9 4 4 6 6 8 6 4 4 5 6 6 6 6 6 5 6 6 7 5 7 8 8 8 8 8 9 11 10 11 11
4 6 3 4 4 6 9 15 16 9 7 11 14 9 6 1 2 6 6 6 7 6 6 6 8 7 7 6 5 7 7 7 6 7 8 9 9 8 7 8 10 11 13 13
6 5 2 1 5 3 8 3 1 18 10 16 10 5 7 8 6 5 6 6 6 6 7 6 5 6 8 5 6 7 7 8 7 8 9 9 8 9 8 7 10 12 12 14
3 5 4 5 4 10 11 8 9 10 11 24 24 15 9 6 5 6 8 6 8 8 6 5 4 4 6 7 7 7 8 8 7 10 11 10 8 9 8 12 12 11 11 13
4 2 5 2 5 10 5 2 3 3 7 11 22 19 15 9 6 7 9 8 9 7 4 6 5 5 6 9 7 7 9 10 11 11 12 9 8 9 13 12 14 12 11 14
4 1 7 5 5 10 9 7 4 7 9 4 10 9 11 10 7 5 8 7 7 6 7 5 5 7 9 8 7 9 10 15 11 9 10 10 9 11 11 12 13 12 13 13
14 12 8 6 4 13 9 6 11 7 2 5 8 8 12 8 8 8 9 8 6 6 5 7 6 7 8 8 7 11 13 13 8 9 10 11 10 9 11 12 14 13 12 14
6 10 9 13 10 6 14 4 7 3 6 6 9 8 12 10 8 8 7 6 5 5 4 5 7 9 8 9 7 11 16 8 8 8 10 12 13 13 12 12 14 12 11 11
5 3 3 3 7 14 11 8 6 6 3 2 3 5 7 6 7 8 4 3 3 4 6 6 7 9 10 8 8 9 12 7 6 10 14 14 12 14 13 10 10 11 11 10
7 12 8 7 9 6 9 12 12 7 5 6 5 6 7 6 6 6 5 5 5 6 5 5 8 9 11 8 8 8 8 6 10 12 13 14 11 12 13 12 10 11 12 11
7 10 11 10 9 8 5 14 16 11 14 15 9 4 5 8 9 6 7 6 5 6 5 6 7 7 11 10 9 9 5 5 8 13 11 11 11 12 11 12 14 16 22 23
Wind_Direction
14 126 124 196 213 226 150 152 151 112 138 60 39 38 25 360 80 338 313 307 163 136 88 83 164 180 176 169 219 217 176 189 159 159 198 201 211 206 213 232 242 224 223 209
99 71 17 333 242 129 124 116 102 74 55 82 89 91 58 51 43 41 36 38 33 28 25 21 15 18 26 230 227 242 259 200 179 184 179 193 203 195 192 214 243 252 246 232
86 19 314 219 115 97 53 123 159 136 104 37 170 102 94 79 71 57 59 56 55 44 42 32 24 24 26 21 11 334 284 262 272 196 180 194 119 33 325 251 235 234 232 239
52 332 36 101 75 15 84 358 106 128 93 146 275 162 153 98 70 63 55 52 56 55 55 55 48 45 34 12 4 355 344 322 278 257 215 232 216 234 221 213 217 218 201 215
99 46 58 60 18 311 136 279 131 168 127 146 194 140 192 121 86 72 64 67 70 75 86 73 65 71 63 46 18 1 348 336 318 308 289 275 271 276 284 284 274 221 195 205
116 183 46 111 354 176 150 148 124 103 137 68 150 128 197 151 142 112 100 89 94 88 78 80 100 92 68 60 43 28 11 338 332 320 301 288 292 292 289 289 279 251 209 212
90 62 1 339 150 170 195 206 81 37 30 163 62 266 138 140 138 133 128 122 114 109 94 66 39 35 32 30 32 30 17 2 355 343 321 300 295 293 288 286 290 288 271 229
76 132 5 329 17 356 33 9 154 155 177 158 220 192 202 138 120 121 133 135 91 67 61 64 60 50 40 28 26 27 21 8 5 359 343 329 319 300 295 297 282 278 278 276
132 57 324 29 343 338 309 43 315 107 88 91 157 73 6 200 172 187 166 138 112 84 75 77 66 50 44 36 31 27 21 18 5 345 318 312 308 299 283 283 280 282 264 254
136 109 218 253 238 47 66 341 103 350 113 182 213 197 233 191 200 200 169 163 165 104 104 91 72 61 52 43 22 18 26 16 335 329 319 314 307 296 291 289 283 275 273 269
164 123 165 206 197 194 52 81 45 78 104 169 184 248 189 188 189 183 160 159 165 108 112 121 113 98 78 51 23 2 357 342 328 319 308 307 297 291 285 281 279 277 277 275
150 120 139 158 158 91 259 246 195 139 224 268 81 271 185 175 166 168 149 183 154 117 121 127 140 132 108 70 353 341 319 316 301 299 310 306 303 303 301 294 286 285 285 286
188 164 101 29 350 196 233 202 263 57 55 205 148 261 359 140 144 140 166 166 125 130 144 127 136 142 109 12 331 313 322 318 318 313 311 308 303 300 290 284 283 288 290 288
349 109 166 171 169 135 200 200 211 173 164 200 228 248 252 176 158 167 209 138 138 151 153 160 159 159 74 314 319 323 321 307 296 301 303 296 287 283 290 292 288 285 284 280
46 126 75 36 19 358 323 205 204 212 190 186 221 226 199 193 193 199 162 148 147 145 167 184 191 202 251 282 292 299 286 291 295 300 293 286 287 287 286 285 285 279 277 278
41 158 90 325 353 16 279 275 242 226 237 254 264 263 275 283 202 158 153 154 181 205 221 212 200 210 242 257 274 287 292 296 308 301 289 289 289 289 285 291 292 288 283 283
118 131 94 264 349 334 303 224 214 209 200 208 231 211 158 139 118 145 161 195 206 212 211 223 221 220 242 257 277 283 282 284 296 288 282 283 285 280 275 280 294 296 293 293
132 105 87 200 13 269 245 255 235 222 226 222 247 177 192 171 180 194 213 208 220 220 210 230 234 229 253 269 282 275 284 283 280 276 277 281 281 284 286 285 288 295 296 294
12 116 114 139 212 294 290 192 172 174 249 217 229 208 185 129 86 255 233 218 218 212 211 210 230 247 267 269 265 274 281 276 279 281 276 274 274 284 289 289 286 283 287 288
333 324 124 137 187 223 258 177 140 153 283 205 203 209 192 129 215 247 208 187 203 197 203 236 260 272 278 275 273 274 273 277 281 275 272 265 270 276 280 278 284 284 277 280
154 141 183 176 233 283 246 164 135 97 237 143 183 181 151 183 186 176 150 177 190 199 223 259 266 252 257 270 272 265 270 269 274 268 271 276 271 266 269 280 283 285 283 281
173 179 190 174 199 268 157 87 171 213 40 157 131 147 153 171 184 164 177 180 192 219 250 263 263 257 261 263 265 263 264 276 271 270 274 276 272 270 282 282 285 284 280 277
214 189 181 190 205 224 199 180 202 178 159 187 150 164 161 173 185 189 199 193 200 228 260 268 259 266 262 264 251 269 271 273 275 276 281 283 288 284 282 280 282 284 277 270
244 212 187 81 237 233 214 242 216 205 172 138 109 145 157 163 175 195 189 216 236 255 257 258 268 269 270 258 257 253 280 287 287 287 287 289 287 290 286 279 274 274 277 277
189 144 167 267 269 311 257 228 232 207 200 226 227 174 179 171 208 202 212 227 228 236 253 253 260 271 276 278 271 266 276 281 286 286 288 291 289 287 289 280 276 276 275 271
185 172 187 221 197 184 228 211 213 197 213 213 186 194 215 185 213 196 213 215 215 239 247 256 261 270 280 285 286 284 262 265 278 292 296 296 297 295 291 293 294 276 283 289